Weather Roundup
Issued by NWS Springfield, MO

Home | Current Version | Previous Version | Text Only | Print | Product List | Glossary On
Versions: 1 2 3 4 5 6 7 8 9 10 11 12 13 14 15 16 17 18 19 20 21 22 23 24 25 26 27 28 29 30 31 32 33 34 35 36 37 38 39 40 41 42 43 44 45 46 47 48 49 50
000
NZUS99 KSGF 271407
HRRSGF

HOURLY WEATHER
NATIONAL WEATHER SERVICE SPRINGFIELD MO
800 AM CST SAT DEC 27 2014

......SGF CWA......

CITY           SKY/WX    TMP DP  RH WIND       PRES   REMARKS
SPRINGFIELD    CLOUDY    36  33  89 NW14      30.19R WCI  27
JOPLIN         LGT SNOW  34  31  88 NW8       30.25R FOG     WCI  27
WEST PLAINS    FOG       48  47  96 CALM      30.11R VSB<1/4
ROLLA          CLOUDY    41  39  93 W13       30.13R FOG
OSAGE BEACH    CLOUDY    39  32  75 W8G16     30.19R WCI  34
BRANSON        LGT RAIN  39  37  93 NW21      30.18R WCI  29

......SURROUNDING SGF CWA......

CITY           SKY/WX    TMP DP  RH WIND       PRES   REMARKS
CHANUTE        CLOUDY    31  25  78 NW9       30.24F WCI  23
PARSONS        CLOUDY    32  29  88 NW8       30.29R WCI  25
COFFEYVILLE    FLURRIES  32  30  92 NW6       30.27R WCI  26
EMPORIA        CLOUDY    26  21  81 NW10      30.26R WCI  16
GROVE OK       LGT RAIN  36  36 100 NW8       30.25F WCI  29
ROGERS AR      LGT RAIN  36  34  92 NW9       30.22R FOG     WCI  29
SILOAM SPRINGS CLOUDY    36  28  75 N14       30.22F WCI  27
HARRISON AR    CLOUDY    41  40  96 NW12      30.16R
NEAR YELLVILLE CLOUDY    46  43  87 NW13      30.12R

......KANSAS AND MISSOURI......

CITY           SKY/WX    TMP DP  RH WIND       PRES   REMARKS
KANSAS CTY INT CLOUDY    31  26  82 W9        30.22R WCI  23
DOWNTOWN KC    CLOUDY    33  26  75 W8        30.24R WCI  26
COLUMBIA       CLOUDY    38  33  82 W14       30.17R WCI  30
SEDALIA        FLURRIES  37  31  78 W9        30.20R WCI  30
ST JOSEPH      CLOUDY    29  23  78 NW16      30.20R WCI  17
ST LOUIS       CLOUDY    50  46  86 S7        30.09R
SPIRIT OF STL  CLOUDY    50  46  87 W3        30.09R FOG
KIRKSVILLE     CLOUDY    35  32  88 W10       30.14R WCI  27
WICHITA        CLOUDY    27  18  69 NW15      30.27R WCI  15
TOPEKA         CLOUDY    29  22  75 NW10      30.22F WCI  20
OLATHE         CLOUDY    30  25  81 NW9       30.20R WCI  22

......TENNESSEE......

CITY           SKY/WX    TMP DP  RH WIND       PRES   REMARKS
MEMPHIS        CLOUDY    55  48  77 SE7       30.14R
NASHVILLE      CLOUDY    50  42  74 SE5       30.23S

......ARKANSAS.......

CITY           SKY/WX    TMP DP  RH WIND       PRES   REMARKS
FAYETTEVILLE   LGT RAIN  37  36  96 NW15      30.21R WCI  28
FT SMITH       CLOUDY    43  39  86 W7        30.21R
LITTLE ROCK    CLOUDY    54  52  93 SE7       30.11R FOG

......OKLAHOMA.......

CITY           SKY/WX    TMP DP  RH WIND       PRES   REMARKS
TULSA          LGT SNOW  34  32  92 N14       30.25R FOG     WCI  25
PONCA CITY     CLOUDY    32  23  69 NW9       30.31R WCI  24
MCALESTER      LGT RAIN  38  34  85 N15       30.23S WCI  29
OKLAHOMA CITY  SNOW      31  28  89 N15       30.26S VSB 1/2 WCI  20

......IOWA............

CITY           SKY/WX    TMP DP  RH WIND       PRES   REMARKS
DES MOINES     CLOUDY    29  24  82 NW16      30.12R WCI  17
QUAD CITIES    MOCLDY    37  33  85 W22G30    30.01R WCI  26

......ILLINOIS........

CITY           SKY/WX    TMP DP  RH WIND       PRES   REMARKS
QUINCY         CLOUDY    39  33  79 W12       30.11R WCI  32
CHICAGO        CLOUDY    46  44  93 SW16G24   29.95F




USA.gov is the U.S. government's official web portal to all federal, state and local government web resources and services.